Theta_e
325 328 329 325 327 331 327 327 328 328 329 325 325 324 323 322 322 337 354 356 356 352 357 361 359 360 359 358 358 358 362 362 362 361 360 361 360 361 361 357 356 355 352 349 347 349 348 349 350 350 350 350 351 351 352 355 355 355 356 356 356 356 356 356 355 355 355 355 355 355 355 355 355 355 355 354 354 353 353 353 352 351 351 351 350 350
326 323 325 328 328 326 324 326 327 326 327 326 325 322 321 323 324 333 342 351 355 346 352 361 358 361 360 354 353 357 363 362 360 360 359 360 359 360 361 358 357 354 351 351 350 348 348 350 350 350 351 351 352 352 353 355 355 355 356 356 357 356 356 356 356 356 355 355 355 355 355 355 355 355 353 353 353 352 352 352 351 351 351 350 350 349
324 321 323 325 323 322 324 327 326 326 326 325 324 318 319 324 325 331 341 350 350 342 354 363 355 364 365 355 355 357 361 360 358 359 357 356 358 361 360 358 357 355 355 357 356 351 349 350 350 351 352 351 352 353 353 354 355 356 355 356 357 356 357 356 356 356 356 356 355 355 354 354 355 353 352 352 352 352 352 352 351 351 351 350 349 349
316 320 323 322 322 323 325 326 326 325 322 322 321 316 319 323 319 322 332 345 347 339 350 357 352 370 376 366 364 358 355 359 360 362 360 358 361 361 359 357 357 358 357 358 359 355 350 350 351 352 352 352 353 353 354 355 355 356 356 356 356 357 357 356 357 357 356 356 355 355 355 354 354 353 352 352 353 353 352 352 352 351 351 350 350 350
318 320 320 319 323 324 321 324 324 321 319 322 323 318 321 324 319 317 324 342 351 342 350 349 339 357 374 366 370 364 353 355 359 360 360 360 360 359 359 358 356 358 359 358 359 358 353 350 351 352 352 352 353 353 354 354 355 356 356 356 356 357 357 357 357 356 356 357 356 356 355 354 354 353 353 353 353 353 353 352 352 351 350 350 350 351
322 320 318 319 322 321 320 323 323 320 319 319 322 323 325 325 323 324 331 341 338 330 340 337 321 336 365 358 359 367 360 354 357 356 355 359 357 357 359 357 355 358 359 358 357 356 352 350 351 352 352 353 352 353 353 354 354 355 356 356 356 357 357 357 356 357 357 357 356 355 355 353 353 353 353 353 353 353 352 352 352 351 351 350 351 351
324 323 321 320 322 323 323 323 323 323 317 314 320 325 325 324 324 332 337 333 325 322 332 335 323 328 348 351 350 363 366 360 359 356 355 357 356 356 357 354 354 357 359 359 357 355 352 350 351 352 353 353 352 352 352 353 354 354 355 356 356 356 357 357 356 357 356 356 355 354 354 353 353 353 352 353 353 352 352 352 351 351 351 351 351 351
324 325 325 323 324 324 322 321 323 324 317 315 322 323 324 321 319 332 337 329 328 326 329 343 339 325 331 345 352 356 360 359 360 358 355 356 354 354 355 353 352 354 359 362 360 358 354 351 351 352 352 352 353 352 352 353 353 354 354 354 355 356 356 357 356 357 356 356 355 354 354 354 353 353 352 353 353 352 352 352 351 351 351 351 351 351
325 325 326 325 325 322 322 325 323 322 319 321 323 320 321 320 321 331 331 329 331 320 317 333 334 321 330 356 361 353 352 354 360 361 356 354 352 352 354 354 351 351 357 360 360 360 354 349 350 351 353 352 353 353 351 352 352 353 354 353 354 354 354 355 355 356 356 355 355 355 354 354 353 353 352 352 352 352 352 352 351 351 351 351 350 351
323 326 327 322 322 323 327 328 323 321 321 321 321 321 325 330 337 337 330 329 324 314 315 325 325 319 330 355 356 342 346 357 362 361 358 358 355 353 356 358 353 352 357 359 359 357 351 349 351 351 352 353 353 353 352 352 352 352 353 353 353 353 353 353 353 355 355 355 355 355 354 353 353 353 352 352 352 352 352 351 351 351 351 351 350 351
324 327 332 327 323 325 326 325 320 319 321 319 321 324 325 338 350 350 350 336 315 315 324 326 327 323 324 344 354 347 354 361 357 357 360 359 357 354 357 361 358 355 360 360 357 353 348 348 351 351 353 353 353 353 352 351 352 352 353 353 353 353 352 352 352 354 355 355 355 354 354 354 353 353 353 352 351 351 351 351 351 351 351 352 351 351
327 324 330 332 329 325 320 321 318 317 321 321 331 329 317 327 334 333 343 334 312 318 329 328 330 324 319 336 355 355 356 356 355 357 358 357 359 359 357 358 357 354 359 363 361 355 351 351 352 353 354 354 353 353 352 352 352 352 353 353 354 353 352 352 352 353 354 355 355 354 354 354 354 354 353 352 351 351 351 351 351 351 351 352 351 351
330 326 328 329 329 325 319 322 319 319 324 322 333 332 316 321 323 318 326 323 314 320 324 327 329 322 326 342 351 350 348 347 351 354 355 355 356 359 356 355 358 358 360 366 366 360 359 357 353 352 355 354 354 354 353 352 351 352 353 353 354 353 352 352 353 353 355 355 355 355 355 355 355 355 354 353 352 351 351 351 351 351 352 352 352 352
327 331 332 327 327 324 318 322 317 316 322 316 320 322 317 320 317 317 327 319 313 319 322 330 329 320 328 339 340 345 344 341 344 349 355 356 357 361 360 360 364 366 366 368 369 364 361 357 351 351 355 354 354 354 353 353 352 352 353 354 355 354 353 353 353 353 354 355 355 355 355 355 355 354 353 353 352 352 351 350 350 351 351 351 351 351
319 322 329 326 326 323 320 324 320 320 323 318 323 320 316 320 313 314 326 317 313 323 324 326 323 317 324 329 333 344 345 345 350 359 365 364 368 371 367 369 375 377 372 368 368 365 356 351 350 352 354 354 355 354 354 353 352 352 353 353 354 355 354 354 353 353 354 355 355 355 355 356 355 353 352 352 353 352 350 349 350 350 350 350 350 350
316 318 328 328 326 325 322 323 323 324 321 317 323 318 312 320 321 318 322 321 321 324 322 321 322 329 336 335 343 352 350 354 361 366 370 372 378 376 371 377 384 385 378 371 371 366 354 349 350 353 353 354 355 354 354 354 353 353 353 353 354 354 355 354 354 354 355 355 356 355 356 355 355 354 352 352 353 352 350 349 350 349 350 350 349 350
315 319 332 333 330 329 324 322 321 320 320 318 317 315 313 321 329 322 317 323 324 320 321 320 324 339 343 334 348 360 354 358 368 372 372 375 378 375 373 378 383 385 378 372 370 362 354 350 349 352 353 353 354 354 354 354 353 354 353 353 353 353 355 355 355 356 355 355 355 355 356 355 355 355 353 353 353 352 350 349 349 349 349 349 349 350
318 319 331 333 330 331 325 324 326 322 324 324 315 317 319 318 327 324 316 322 324 320 325 326 326 337 336 332 346 356 350 354 368 375 373 371 370 369 373 375 375 376 371 368 366 357 352 349 348 351 352 353 354 354 354 354 353 354 353 353 353 353 354 354 355 356 355 354 354 355 355 354 355 355 353 353 353 352 351 351 351 351 350 350 350 350
323 318 328 334 330 334 334 330 330 328 328 325 318 324 320 312 318 320 315 318 319 319 327 328 330 334 334 340 346 344 349 358 363 371 371 366 364 366 373 375 372 372 372 373 370 360 353 347 346 350 351 352 354 353 354 354 352 353 352 352 353 352 351 351 353 355 355 355 355 355 355 354 355 355 353 353 353 353 353 353 353 353 352 351 350 349
328 319 322 335 333 331 338 335 326 326 331 328 326 329 326 320 320 317 315 318 319 325 329 326 325 329 339 356 357 347 357 364 360 365 369 365 364 365 368 373 377 376 376 376 368 362 358 348 346 349 349 351 353 352 354 353 352 353 351 352 353 351 349 350 352 354 354 354 354 354 354 354 354 354 353 353 353 353 353 353 353 352 351 351 350 350
336 325 319 336 342 328 329 332 326 326 328 326 326 324 323 326 324 319 319 320 322 331 334 327 324 332 349 362 360 354 359 362 360 361 365 367 365 360 357 363 374 375 372 369 362 363 360 349 345 348 348 349 351 351 352 352 352 352 351 351 352 352 351 351 352 353 353 353 353 353 353 354 354 354 354 354 353 353 352 353 353 352 351 351 351 350
333 331 322 327 330 323 327 332 329 329 328 325 326 323 321 324 325 324 322 320 324 328 332 331 325 334 353 354 353 356 352 352 354 355 363 366 362 359 355 354 361 365 365 363 359 361 358 348 345 347 347 348 350 350 351 351 351 352 352 352 352 352 353 353 353 353 352 352 352 353 354 354 355 355 354 354 354 353 353 353 354 353 353 353 351 350
343 346 331 324 325 325 328 330 328 326 329 331 327 326 327 326 328 328 321 319 323 323 328 332 324 333 353 350 350 355 350 348 347 349 358 361 360 360 354 350 355 358 360 359 359 359 349 343 346 348 347 347 348 349 350 350 350 350 351 352 352 353 353 354 354 353 354 354 354 355 356 355 355 355 355 354 354 354 353 353 353 353 354 354 352 352
345 343 330 331 347 346 331 332 336 333 332 333 328 327 328 323 326 333 329 324 323 322 327 326 322 337 352 345 345 348 349 352 349 347 354 355 358 357 349 350 355 356 358 360 360 357 346 342 346 347 347 348 347 348 349 349 350 349 350 350 351 352 353 353 355 355 355 356 357 357 357 356 355 354 354 354 354 354 352 352 353 353 354 354 353 353
330 334 333 335 342 339 330 332 336 333 333 332 327 328 331 328 326 331 332 330 325 324 327 322 323 340 348 342 344 345 346 350 346 346 352 352 352 352 349 353 357 357 360 361 359 358 354 352 350 347 348 348 347 348 348 348 349 349 349 350 350 351 352 353 354 354 355 356 357 357 356 356 356 355 355 354 354 354 352 351 353 353 353 354 354 353
331 336 340 336 328 324 328 331 328 327 330 330 330 336 341 340 330 326 329 327 323 325 328 325 327 340 350 349 348 347 347 350 348 348 352 351 350 352 353 355 355 356 357 356 357 357 356 353 348 345 348 349 349 349 348 348 349 348 348 349 350 350 350 351 352 353 354 355 355 356 356 356 355 354 355 354 354 355 351 349 352 354 353 354 355 354
348 340 347 356 343 330 338 344 336 331 327 325 334 347 350 346 337 330 327 324 328 333 335 335 334 340 353 355 349 348 349 350 350 349 351 350 349 350 351 351 350 350 349 350 351 350 350 349 345 343 345 348 349 350 350 350 349 349 349 349 349 349 349 349 350 351 352 353 354 354 354 354 354 353 354 354 354 355 351 349 352 354 354 354 355 355
354 332 339 357 345 337 352 355 339 330 325 328 341 352 352 350 348 336 323 322 330 332 331 341 346 346 353 354 349 348 349 349 349 347 348 349 347 347 348 348 348 348 347 347 347 346 347 348 345 341 341 343 345 347 350 352 352 351 351 350 350 350 349 348 348 349 350 351 352 353 353 353 353 353 353 354 354 354 352 350 352 354 354 354 355 355
349 328 329 333 329 335 344 341 332 327 330 341 350 351 351 355 360 350 336 335 336 329 329 344 353 353 353 352 348 347 348 347 346 343 343 344 345 345 346 346 347 347 347 346 346 347 346 346 346 343 341 342 343 344 347 352 353 353 352 351 351 351 349 349 349 349 350 351 352 353 352 352 353 353 353 354 354 355 354 352 352 353 354 354 354 354
334 330 334 326 322 327 327 327 331 333 338 346 350 350 350 352 356 354 351 351 346 340 343 350 353 353 350 349 348 346 345 346 342 341 342 341 342 344 344 344 345 345 346 346 346 347 347 347 347 344 344 343 342 343 346 349 352 353 352 351 350 349 348 348 350 350 350 352 353 353 353 353 353 353 353 353 353 353 354 354 353 354 354 354 354 354
319 325 339 331 318 321 325 328 336 344 349 351 349 350 351 350 351 353 355 358 353 349 351 352 352 353 350 348 349 344 342 343 341 341 341 340 341 342 341 342 342 343 344 346 346 347 346 347 347 344 345 345 343 344 346 347 348 351 352 352 350 349 349 349 350 351 351 352 353 353 353 352 352 352 352 351 350 351 352 353 353 354 353 353 353 353
322 322 333 328 314 318 325 324 333 345 349 350 351 350 350 351 351 349 349 351 349 350 354 355 353 354 350 347 348 344 341 341 341 341 341 339 339 340 339 340 340 340 342 344 346 347 346 348 347 345 345 345 345 345 346 346 348 348 351 351 349 349 348 348 350 350 351 352 352 352 352 351 351 351 350 350 349 349 351 352 352 353 353 353 352 352
328 323 325 322 315 320 326 328 339 340 329 336 351 351 349 351 349 346 348 347 345 350 357 356 351 349 346 345 348 346 343 343 342 340 340 339 339 337 336 336 336 337 340 343 345 346 346 346 344 342 344 345 346 346 346 346 346 346 347 349 347 347 347 349 351 352 352 353 352 352 352 351 350 350 349 350 349 349 351 351 352 352 351 352 351 351
331 329 327 325 317 319 331 340 340 331 322 334 351 353 350 350 347 348 349 345 345 348 350 349 346 343 342 344 348 348 346 345 342 338 336 337 337 337 334 332 333 335 336 340 345 346 344 342 341 340 342 343 345 347 346 345 345 344 345 345 345 346 349 351 353 353 355 355 354 354 354 353 353 353 352 351 349 349 351 351 352 352 351 351 350 351
336 331 327 327 320 319 335 341 328 322 332 345 350 347 345 343 344 347 346 343 346 347 345 344 341 339 338 340 343 347 347 346 342 337 334 334 334 334 332 330 332 334 334 339 347 348 343 341 340 339 340 340 342 344 344 342 343 344 344 344 344 345 349 353 354 354 356 356 356 357 356 356 356 356 355 353 352 352 352 352 352 352 351 350 351 351
334 333 327 324 319 316 323 326 319 321 335 342 340 340 341 340 341 343 344 344 344 345 346 344 339 336 336 338 342 346 347 344 342 340 337 334 333 331 331 330 331 332 333 336 344 346 342 340 341 340 339 340 340 340 342 342 343 344 345 345 345 345 348 351 354 355 357 358 358 358 358 357 357 356 356 354 353 353 352 352 352 351 351 351 351 351
327 333 326 318 318 323 325 325 324 328 334 337 338 337 335 334 334 339 345 345 340 343 346 341 337 337 337 340 344 344 343 345 348 346 339 335 334 332 330 329 329 331 330 331 337 343 341 339 340 340 340 340 339 339 340 340 341 343 343 344 344 345 346 347 350 353 356 358 359 359 358 358 357 356 356 354 353 353 352 352 352 351 351 352 352 352
324 328 324 315 320 332 338 337 336 335 338 345 347 339 333 331 332 340 350 346 339 343 345 338 336 338 337 338 340 341 344 352 356 353 344 337 335 334 333 330 328 330 331 329 332 339 340 338 339 339 340 341 340 340 340 338 339 340 339 340 341 342 344 345 346 349 352 354 356 358 358 357 356 356 355 354 354 354 353 353 353 353 352 351 351 352
333 338 339 329 325 329 335 338 337 337 341 347 346 340 332 328 330 337 347 345 340 343 344 338 334 333 334 334 334 336 342 345 346 347 345 341 337 335 336 334 330 329 330 328 329 334 336 336 337 336 338 340 340 341 341 340 339 339 339 340 341 342 343 344 344 346 348 349 352 355 355 354 354 354 355 355 355 355 355 355 354 354 353 351 351 352
349 351 344 333 332 336 337 334 332 336 340 338 337 335 330 328 331 335 341 342 342 343 343 337 332 331 333 334 334 334 334 332 332 334 335 337 336 333 333 334 331 329 328 326 327 330 332 334 334 333 333 335 337 338 339 341 341 341 340 340 341 343 343 344 344 345 346 347 349 351 352 352 353 353 354 355 356 355 355 355 355 355 355 354 353 354
352 350 341 337 339 344 345 338 334 339 340 332 329 330 329 329 333 338 342 343 341 340 337 333 330 330 331 331 331 330 329 328 329 330 329 331 333 330 326 326 327 327 325 324 325 327 329 331 333 332 329 328 331 332 334 338 339 339 340 341 341 342 343 344 345 344 345 346 347 349 351 352 352 352 352 354 355 356 356 355 355 355 355 354 355 354
341 339 339 343 339 338 345 345 338 337 335 327 325 328 329 331 335 341 343 340 338 337 332 329 329 329 330 331 329 329 330 329 330 331 329 328 329 326 322 321 323 324 323 324 324 325 327 328 330 331 327 325 327 328 329 333 335 335 336 338 339 341 343 344 345 345 345 346 346 348 348 347 346 349 351 352 354 355 355 355 354 355 354 354 354 354
332 330 336 341 336 335 343 344 337 337 333 326 325 330 333 333 337 341 339 332 332 334 330 329 330 328 328 331 330 330 332 332 332 331 329 327 327 325 322 322 322 323 323 324 324 323 325 327 328 329 327 326 326 326 326 330 332 332 333 333 334 339 342 345 346 345 345 345 346 346 345 343 343 345 347 349 351 353 355 355 354 354 354 354 354 354
330 332 337 339 335 335 341 340 337 339 335 328 329 334 333 329 332 339 338 330 329 331 330 331 332 330 329 332 332 332 333 331 331 331 329 328 327 324 323 323 323 323 323 323 324 324 324 325 326 327 327 326 326 326 326 327 329 331 332 330 331 336 341 344 346 345 344 344 344 344 344 343 342 342 344 347 349 352 354 354 354 354 354 354 354 353
328 333 336 334 330 331 337 339 338 337 333 330 331 331 329 326 329 334 335 330 329 330 329 330 332 332 332 331 331 332 332 330 330 330 328 328 327 324 324 324 323 323 323 323 324 324 324 324 325 326 326 327 327 326 326 326 327 329 329 328 331 335 338 343 346 346 344 343 343 341 342 343 344 345 345 345 347 350 352 353 353 354 353 353 353 352
327 330 334 334 329 328 331 332 331 330 330 330 331 329 327 327 329 331 331 330 330 331 332 331 331 332 332 331 330 331 330 329 329 329 328 328 326 324 324 323 323 324 324 324 325 325 324 324 324 325 326 326 327 327 326 327 327 327 328 329 332 335 337 341 345 346 343 343 342 341 340 341 342 344 345 345 346 348 351 352 352 352 352 352 352 352
330 330 334 333 330 331 333 331 328 328 329 331 332 333 331 329 330 330 330 330 330 332 333 332 331 331 331 330 330 331 330 328 328 328 328 328 327 325 323 323 324 324 324 325 325 325 325 325 324 325 326 326 327 327 327 327 327 327 328 329 331 335 339 342 344 346 344 343 342 340 339 339 340 342 343 344 345 346 348 349 350 350 351 351 351 351
327 328 332 332 332 332 331 331 331 332 332 332 333 334 333 332 333 333 332 333 333 332 329 327 327 330 331 330 330 331 330 329 329 328 328 328 326 325 323 323 324 324 325 326 326 326 326 326 325 325 326 326 328 328 327 328 327 327 329 329 329 334 340 343 344 345 345 344 342 341 339 338 340 342 343 344 344 345 346 347 347 347 348 349 350 351
327 328 329 330 333 330 327 328 330 330 331 333 333 333 334 334 334 335 336 336 336 335 332 328 325 326 327 327 329 329 329 329 328 327 328 328 326 324 324 324 325 325 325 326 326 327 327 326 326 326 327 327 328 328 327 328 327 327 329 329 328 332 338 342 345 345 345 345 343 342 340 339 339 340 341 341 342 342 344 345 346 346 346 347 348 349
331 331 330 330 332 331 333 335 332 331 337 340 334 332 333 333 333 335 336 336 335 334 334 331 327 325 325 324 325 327 329 329 327 325 326 326 325 324 325 325 325 325 326 326 327 327 328 327 327 327 327 328 329 328 328 328 328 328 329 328 328 330 333 339 343 344 345 345 344 342 342 341 340 339 339 339 340 341 342 342 343 344 345 346 346 347
330 329 331 335 336 332 335 340 335 333 339 339 333 334 337 333 332 334 333 334 333 330 328 329 330 329 328 325 323 324 327 326 325 324 325 325 324 325 325 325 325 326 326 327 328 327 327 328 328 327 328 328 328 329 329 329 329 329 329 328 328 328 329 334 340 343 344 344 345 344 343 341 340 339 338 338 340 341 342 342 342 342 343 343 344 345
Wind_Speed
3 4 3 4 6 7 4 4 5 5 3 1 0 2 4 5 7 7 4 4 4 5 5 8 8 9 7 5 5 5 5 6 8 7 7 6 6 6 7 7 8 8 8 5 7 12 13 15 16 16 17 18 19 21 23 24 25 26 26 25 25 25 24 23 23 23 23 23 22 22 23 23 22 21 21 20 20 19 17 15 14 14 14 13 12 13
5 3 5 8 8 6 2 5 5 3 1 1 1 3 5 4 7 8 3 4 1 4 4 2 5 10 9 7 5 3 6 9 11 11 9 9 7 5 7 8 8 7 5 3 6 10 12 14 15 16 17 18 19 21 23 25 26 27 27 27 27 26 25 25 25 24 24 24 24 23 24 24 23 22 21 20 19 18 16 15 14 13 13 13 12 12
5 3 10 9 5 2 2 5 5 3 2 1 1 0 4 4 5 7 4 4 1 3 4 1 4 8 8 7 6 5 8 8 9 10 8 7 6 6 7 7 7 6 5 5 5 7 12 15 16 17 19 20 22 22 24 26 26 27 28 28 28 27 27 27 27 26 25 25 24 24 23 23 23 21 20 19 18 17 16 15 14 13 14 14 13 13
1 6 8 4 3 4 1 3 5 1 1 2 3 2 3 4 2 4 5 4 2 0 2 3 3 5 6 5 5 5 7 6 5 5 5 4 6 7 7 6 7 7 7 6 5 6 10 14 16 19 20 22 22 23 25 26 27 28 29 29 28 28 28 27 27 26 26 24 23 23 22 21 21 20 19 19 19 18 17 16 15 15 14 14 14 14
5 8 4 2 3 5 3 2 5 2 3 3 5 5 4 4 4 4 2 2 4 3 1 4 3 5 4 5 6 4 4 6 5 5 6 6 6 6 6 6 7 8 8 8 7 7 8 12 16 19 21 22 23 24 26 27 28 29 29 30 29 29 29 28 28 26 25 24 22 21 19 17 17 16 15 17 19 19 18 18 17 16 14 15 15 14
8 7 2 2 1 3 3 3 6 7 2 3 5 9 9 6 5 2 1 3 5 4 3 2 2 5 5 5 6 5 4 6 4 5 8 7 6 5 6 8 7 7 7 8 8 8 8 12 16 19 21 22 24 26 27 27 29 29 29 29 29 29 29 28 27 26 26 25 24 22 20 17 16 15 15 18 20 20 19 18 18 17 15 15 15 14
5 4 2 2 3 6 2 3 5 7 5 2 5 9 8 5 5 4 3 3 2 2 4 2 4 3 6 4 5 5 5 7 5 6 9 8 7 6 7 8 6 5 6 6 8 8 9 13 15 17 21 24 26 27 26 25 27 27 27 28 28 29 29 29 28 27 27 26 25 24 23 21 19 18 18 20 20 20 19 18 18 17 15 15 15 14
3 5 5 5 6 5 4 4 5 6 7 3 5 6 6 4 5 6 6 4 2 3 4 4 4 2 4 5 6 5 5 7 6 7 10 8 9 7 7 9 7 6 6 6 7 8 9 12 16 19 23 26 26 25 25 25 26 26 26 28 28 26 25 25 26 27 28 27 27 26 24 22 22 21 20 20 20 19 19 17 17 18 16 15 15 15
2 3 2 2 4 3 4 5 6 8 4 7 5 5 3 3 5 6 6 4 1 1 3 5 2 3 4 6 5 4 2 7 7 8 10 10 10 8 6 9 8 5 6 6 7 8 9 13 18 20 21 22 22 22 24 26 25 25 25 25 24 23 21 21 22 26 27 28 28 27 25 24 23 22 21 20 19 19 19 17 17 17 17 16 15 16
3 4 5 5 1 4 7 7 6 9 4 4 5 5 3 5 4 4 5 4 3 3 4 6 2 3 4 6 4 3 2 6 7 7 9 9 10 7 6 8 7 4 4 6 7 7 9 12 15 15 15 16 18 20 22 23 24 24 23 22 23 26 27 26 25 26 28 28 28 27 26 25 24 22 19 18 19 19 19 18 17 17 17 17 16 16
5 2 4 4 4 6 6 3 3 8 5 1 5 3 4 6 5 4 3 4 4 2 6 6 3 4 1 5 3 2 3 5 5 5 7 8 9 7 6 6 5 4 3 4 5 5 7 9 10 11 13 15 16 18 20 22 23 23 22 22 25 28 29 28 28 29 30 29 28 27 26 25 24 22 20 18 18 19 19 18 18 18 18 18 17 16
7 2 2 3 4 4 3 1 1 1 1 4 3 3 4 5 5 4 5 4 3 3 6 5 1 6 1 5 5 4 6 5 5 6 7 8 9 8 5 4 4 3 3 3 4 4 4 5 7 10 13 14 16 18 20 22 23 23 23 24 26 28 28 28 29 30 30 29 29 28 27 25 24 23 22 20 20 20 21 20 19 18 18 18 17 17
6 2 3 6 2 4 4 2 3 6 6 4 3 4 4 4 4 2 3 2 1 4 3 3 1 3 3 6 5 6 8 7 6 5 6 6 8 7 5 5 5 3 3 4 3 3 3 4 6 8 12 14 17 19 20 22 23 23 25 26 28 29 30 29 29 29 29 29 29 29 28 26 24 24 23 23 22 22 22 21 20 19 19 18 17 17
4 5 7 8 3 2 4 4 1 2 2 3 3 3 3 2 3 1 3 2 2 2 2 4 1 1 4 4 4 7 7 7 6 5 5 5 5 6 5 4 5 4 3 3 3 3 2 3 4 7 10 13 16 18 20 21 23 24 25 27 28 29 30 30 30 29 28 29 29 29 28 27 25 24 24 24 23 23 22 21 20 20 20 19 19 19
2 4 5 3 2 2 1 4 5 4 2 2 4 5 4 3 3 2 3 2 2 2 3 5 1 2 3 3 5 7 7 6 4 3 2 2 3 4 4 3 4 4 3 2 2 2 0 2 5 7 9 12 15 18 20 21 23 24 26 27 28 28 29 30 30 30 29 29 29 28 28 27 25 24 25 24 23 23 22 20 20 20 19 19 19 18
3 3 6 5 4 2 2 2 4 6 3 1 3 4 1 3 4 2 2 4 3 1 1 3 1 3 4 4 6 5 4 4 3 4 5 5 5 5 5 5 4 4 4 3 3 1 2 3 5 7 8 11 14 17 19 22 23 25 27 28 28 28 28 28 29 30 29 29 27 27 27 26 25 25 25 25 24 24 23 20 19 19 19 18 17 17
3 2 6 6 6 3 2 1 0 3 1 1 1 1 4 3 6 4 1 1 3 2 1 1 2 5 3 3 6 6 5 6 6 6 5 5 6 6 5 5 5 5 4 4 4 1 2 3 5 7 9 12 14 16 19 22 24 26 27 27 28 28 27 26 28 29 28 27 26 26 26 25 25 24 25 26 25 25 23 19 18 18 18 19 18 17
3 2 5 4 5 4 2 2 3 2 3 3 1 3 3 2 4 4 2 3 4 1 2 2 2 5 1 1 5 6 5 5 6 5 6 6 6 5 6 5 5 5 4 5 5 1 2 2 5 8 9 12 14 16 19 21 23 24 25 26 27 27 25 24 26 27 26 25 25 25 25 25 24 24 25 26 24 23 21 19 18 18 18 19 18 17
3 1 7 3 3 7 5 5 4 5 3 5 2 3 2 2 1 1 2 1 1 1 3 3 3 3 3 3 4 2 3 5 5 5 6 7 6 5 6 6 6 6 4 5 4 3 2 2 3 6 9 11 13 15 17 18 19 20 22 23 24 22 22 22 22 23 24 23 24 24 24 24 24 23 24 25 25 22 20 18 17 17 17 17 18 18
2 2 4 5 3 4 6 5 3 5 6 5 4 3 2 3 3 1 1 2 2 2 2 2 3 2 5 5 4 5 6 6 5 5 6 8 7 5 5 5 5 6 5 4 4 4 3 3 2 4 7 9 11 13 14 15 16 19 20 21 21 18 19 21 21 21 22 22 23 22 22 22 23 23 23 25 26 24 23 21 17 14 15 17 18 19
2 3 1 6 5 4 2 2 2 0 3 4 4 5 4 2 1 1 1 2 2 3 3 1 1 5 6 4 6 7 8 8 8 7 7 8 7 6 5 4 5 5 5 5 4 4 4 3 3 3 4 7 9 10 13 14 15 16 17 19 19 17 17 19 20 21 21 22 21 20 20 21 22 22 22 24 25 25 24 21 15 13 14 17 19 19
1 2 1 3 4 2 2 3 2 3 1 4 3 2 1 1 3 3 2 3 1 3 3 4 2 6 6 2 4 6 5 5 5 6 7 7 7 7 5 4 4 4 4 5 4 4 5 3 3 3 3 5 7 8 11 13 13 14 16 17 18 17 17 18 19 20 21 20 19 19 19 20 21 21 21 22 24 24 22 17 14 17 19 19 18 19
2 3 3 1 2 2 6 6 3 4 2 6 4 2 2 2 4 4 1 3 1 2 1 3 2 6 5 1 4 5 5 5 5 5 7 7 7 7 5 1 1 3 4 5 5 4 6 5 4 4 3 4 5 7 8 10 11 12 14 15 16 17 17 17 18 19 20 20 19 20 20 20 20 20 20 20 22 24 20 16 18 22 21 18 17 18
2 3 3 2 4 4 5 6 4 1 5 5 4 3 2 1 1 5 4 1 1 1 1 1 0 5 5 5 4 4 4 5 4 4 5 6 6 7 6 5 6 5 5 6 5 5 7 9 7 4 1 2 4 5 6 7 8 9 11 13 14 15 15 16 17 18 19 20 20 20 20 21 20 20 20 20 21 22 19 18 22 24 21 19 19 19
1 1 2 3 4 6 6 6 6 5 4 2 2 4 4 3 2 2 1 3 1 2 3 3 2 5 5 6 8 10 10 8 6 5 4 5 6 6 6 6 6 5 6 7 7 7 8 9 8 7 5 3 2 3 4 5 6 7 8 9 10 12 13 14 15 16 18 19 20 20 20 21 21 20 21 20 21 21 18 17 21 24 22 22 21 21
2 2 3 4 3 0 1 2 3 3 3 1 2 5 5 4 4 2 2 3 1 2 3 3 4 5 6 10 13 14 12 10 9 9 7 5 6 6 6 6 5 6 6 7 8 7 7 7 7 9 9 7 5 5 5 5 5 5 6 7 8 11 13 14 15 16 17 18 19 20 20 21 21 21 21 20 20 20 17 16 20 23 22 22 21 20
4 3 2 5 6 5 6 5 5 1 2 1 3 5 5 5 3 3 3 1 1 2 1 4 5 0 7 11 12 12 11 10 10 10 10 9 8 8 7 8 8 8 7 7 8 8 8 8 8 9 10 9 8 7 7 7 6 6 6 7 8 10 12 15 16 17 18 19 20 20 21 20 20 19 19 19 19 19 16 17 20 21 20 20 20 20
5 2 1 4 4 5 7 5 3 2 3 2 1 4 4 5 3 4 2 3 1 3 4 7 3 3 5 8 9 9 9 8 9 9 9 8 9 8 9 11 12 12 11 11 11 10 10 9 8 9 11 11 10 10 9 8 8 6 5 5 5 6 9 12 15 18 19 19 21 21 20 19 18 17 17 17 17 17 16 16 18 19 18 19 21 21
6 1 1 3 2 4 3 3 1 4 4 2 1 3 3 4 5 4 1 3 1 4 4 4 3 5 4 6 8 8 7 6 7 7 7 8 10 10 12 14 14 13 13 13 12 11 11 10 8 9 12 12 10 9 9 7 5 2 0 3 5 7 6 6 11 17 19 20 21 21 19 17 16 15 15 15 15 15 15 15 16 17 18 19 20 20
4 0 1 2 1 3 3 4 0 6 5 3 4 4 3 4 6 5 1 2 2 4 2 2 8 8 4 5 6 7 6 4 4 7 10 11 12 12 13 14 13 12 12 12 11 10 10 9 8 9 10 10 8 6 6 3 1 4 7 10 13 14 12 11 12 15 19 21 21 19 18 17 17 15 15 14 14 14 14 14 15 16 17 17 18 19
2 1 1 2 1 4 3 3 3 5 6 5 5 5 3 4 6 5 3 3 3 3 1 3 8 6 4 4 5 5 4 5 8 11 12 11 11 12 13 13 12 12 11 11 10 9 8 8 7 8 9 7 4 3 5 5 7 9 11 13 14 14 12 10 9 11 17 21 21 19 18 18 17 16 16 15 14 14 14 13 14 16 16 17 17 17
2 0 1 4 2 4 3 3 2 2 5 7 7 6 5 5 4 3 2 2 1 1 3 5 5 2 3 4 4 4 6 10 12 12 10 10 11 12 13 13 12 12 11 10 9 9 8 7 7 7 7 5 2 3 6 8 9 10 11 11 12 12 10 10 10 10 14 19 21 21 19 18 18 17 16 15 14 14 13 13 14 15 16 17 18 17
2 3 1 2 2 4 5 2 2 2 5 4 3 2 2 3 3 2 3 4 2 2 2 2 1 2 4 3 3 5 7 9 10 10 10 10 11 12 13 13 13 12 10 8 7 7 7 6 8 8 7 6 3 3 6 9 10 9 9 8 9 9 9 10 12 12 12 15 20 22 20 18 17 16 15 15 14 13 13 14 15 15 16 16 16 17
3 5 3 2 3 4 6 4 4 3 1 3 4 2 4 4 5 5 3 4 4 3 3 2 1 2 4 4 5 6 6 6 7 9 9 9 9 10 11 11 11 12 10 8 7 6 6 8 10 12 12 11 10 10 9 7 8 11 10 9 8 6 7 10 13 14 13 14 16 18 17 16 16 15 14 13 13 13 14 15 16 16 16 16 17 18
4 4 2 2 3 2 3 5 5 1 5 5 2 2 5 6 8 8 4 2 4 4 3 3 3 4 6 5 4 2 4 3 3 6 9 9 8 8 9 9 9 10 9 7 6 6 8 11 14 16 18 19 19 20 18 14 14 17 13 10 9 8 7 9 13 15 14 13 14 14 14 14 14 14 13 13 13 14 15 16 17 17 17 17 18 19
5 5 3 2 2 1 1 4 2 4 5 4 2 0 2 3 5 4 3 4 4 3 1 2 3 4 5 3 4 3 4 3 0 3 5 5 4 5 6 6 6 6 5 4 4 5 8 12 16 18 20 22 24 24 22 20 20 20 17 13 10 10 9 8 12 15 14 12 12 12 13 14 14 14 13 13 13 14 16 16 17 18 18 18 18 19
5 4 3 1 1 2 2 2 1 2 2 2 1 1 1 1 1 2 2 1 4 3 1 0 2 3 3 1 5 5 3 2 2 1 1 1 2 3 4 3 2 3 5 5 4 4 6 11 16 19 21 23 24 23 22 23 22 21 20 19 17 15 13 11 12 14 13 11 11 12 13 14 14 14 14 13 14 15 16 17 18 18 19 19 20 20
3 2 4 3 1 2 4 3 1 1 2 5 5 2 1 3 4 3 5 0 4 4 2 1 1 2 1 2 4 5 2 3 3 3 4 4 5 5 4 3 3 5 8 9 8 6 8 12 16 19 22 23 23 23 23 25 25 22 21 22 21 19 18 16 15 13 12 12 12 13 13 13 14 14 14 14 15 16 16 17 17 18 19 19 20 20
6 3 3 4 2 2 4 3 2 3 3 5 5 5 4 4 3 3 4 2 4 4 2 2 1 2 1 1 2 1 3 3 2 4 5 6 6 5 5 7 9 11 11 12 11 9 9 12 15 19 22 22 22 24 24 25 26 25 24 24 23 20 19 18 17 16 16 15 13 12 11 11 12 14 15 16 16 16 17 16 17 18 19 19 19 19
5 4 3 3 2 2 3 2 2 3 2 2 4 6 7 4 2 4 1 4 5 4 3 2 1 3 2 2 2 3 4 2 3 4 4 4 8 10 9 10 12 14 14 13 12 10 10 10 12 17 22 22 21 23 24 24 26 26 24 24 24 21 20 20 19 16 14 12 10 8 7 8 12 14 16 17 17 16 16 17 17 17 18 19 18 18
4 3 2 3 2 2 3 2 1 2 2 2 4 6 7 3 3 3 3 5 3 4 3 1 2 4 2 3 3 2 0 3 4 5 3 2 5 9 11 12 13 14 14 14 13 11 10 10 10 12 19 22 21 21 21 21 22 23 23 23 22 20 20 20 16 13 12 9 6 6 8 11 15 18 17 16 16 16 16 17 17 18 18 19 18 17
2 2 2 2 2 2 2 2 1 2 2 3 5 6 4 1 1 3 4 3 2 3 3 1 2 2 2 2 1 2 4 5 5 5 4 2 3 5 8 10 11 12 13 14 14 12 11 12 11 11 14 20 21 20 20 19 18 19 21 22 21 20 18 16 12 9 8 7 6 7 10 14 18 20 17 14 14 16 17 18 18 19 19 19 19 19
1 1 1 0 1 1 2 3 1 2 3 4 4 3 3 1 4 4 1 1 2 3 1 0 0 1 1 1 2 4 4 5 5 5 5 4 4 5 7 9 10 11 13 14 15 14 11 12 14 13 13 16 19 20 19 18 17 17 17 19 20 18 15 12 9 8 7 6 5 7 10 15 19 20 17 15 14 16 18 19 20 20 20 21 21 21
1 2 1 2 2 2 2 0 2 4 4 4 2 2 1 1 3 4 3 1 2 2 1 1 2 3 3 2 4 4 4 5 5 6 6 6 6 6 8 10 11 13 14 15 17 16 12 12 14 14 14 15 18 20 20 18 17 16 16 17 18 16 13 11 10 9 10 10 10 10 12 14 18 20 18 15 15 17 19 20 21 21 21 21 22 21
1 3 3 2 1 2 4 5 4 4 4 3 2 3 2 1 0 3 4 3 1 2 1 1 4 5 4 4 5 4 4 5 6 6 6 6 6 7 9 11 13 14 14 16 18 18 15 14 14 15 15 16 17 20 22 20 17 16 18 18 16 15 13 10 9 10 13 15 16 16 15 13 15 19 18 15 16 19 21 20 20 20 21 22 21 20
2 1 3 2 0 0 1 2 1 1 3 4 3 0 1 0 1 2 3 1 2 3 2 2 4 5 5 4 4 4 5 6 6 6 6 6 6 8 11 12 14 15 15 17 19 20 18 17 15 15 16 17 18 20 23 23 20 17 19 18 14 12 11 9 8 11 14 16 19 21 19 16 15 14 14 14 17 20 21 21 21 21 22 22 21 20
3 1 3 3 2 2 0 2 2 1 3 4 5 4 3 2 1 1 2 2 4 4 3 3 4 5 5 4 4 5 6 6 6 6 7 6 6 8 10 12 14 16 16 17 18 19 19 17 17 17 18 19 21 21 22 25 24 20 18 16 13 12 10 9 9 12 14 16 19 20 21 20 19 16 15 15 15 18 20 20 21 21 21 20 20 20
1 2 3 2 3 2 3 5 4 2 4 5 3 3 3 3 3 3 2 3 3 3 4 4 3 3 3 5 5 5 6 7 6 6 6 6 6 8 10 12 14 16 18 19 19 19 18 17 17 18 19 21 23 24 23 24 24 21 17 15 14 13 10 9 10 13 15 16 17 17 18 20 19 17 17 18 18 17 18 18 18 19 19 19 19 19
1 2 1 2 2 1 3 3 2 3 6 6 4 4 4 3 3 4 5 4 4 4 5 6 6 5 5 6 6 5 6 7 7 6 6 6 6 9 12 14 16 17 18 19 20 19 18 17 17 18 20 21 23 24 24 23 22 21 19 17 16 14 11 10 12 14 16 17 18 18 17 18 17 17 19 20 20 19 18 18 17 18 19 19 19 19
3 2 1 3 3 1 3 4 3 1 3 5 5 5 4 2 2 4 6 6 6 6 5 6 8 9 8 8 7 5 5 7 7 7 7 6 8 12 15 17 18 19 20 20 20 20 19 19 18 18 19 22 23 24 25 24 24 24 23 20 17 15 14 13 13 15 18 20 20 20 19 19 18 17 18 20 20 20 20 20 18 17 18 19 19 19
2 3 2 3 3 3 6 6 5 4 2 4 4 4 4 2 1 3 5 5 5 6 5 4 6 7 8 10 11 8 6 7 10 10 8 9 13 16 17 18 18 19 21 22 20 20 20 20 19 18 18 21 24 26 27 26 25 25 24 22 18 17 18 17 16 16 18 20 22 22 21 21 21 19 18 19 19 20 20 21 20 19 17 17 17 17
Wind_Direction
55 40 322 256 241 252 239 180 192 193 172 80 30 252 257 265 281 261 246 265 173 153 239 222 232 267 282 292 270 247 228 230 239 234 229 223 213 210 208 220 223 228 242 237 228 230 226 226 223 221 221 220 217 214 212 210 209 209 209 209 209 212 214 214 213 211 211 212 212 215 222 227 227 230 236 237 237 242 243 242 243 245 246 242 229 219
51 53 260 238 232 241 173 166 193 200 200 328 213 284 291 231 259 268 256 317 244 183 268 240 228 266 272 272 273 230 209 222 226 222 225 224 218 214 211 220 225 231 247 230 221 221 218 219 218 216 216 215 214 211 209 209 208 208 208 209 210 211 213 215 217 214 212 215 215 216 220 225 226 228 232 232 232 236 238 238 238 238 240 241 229 213
24 271 253 249 225 186 131 167 184 211 236 252 153 330 297 251 265 290 310 343 34 197 272 192 194 260 271 273 278 224 211 228 230 220 226 227 221 226 221 221 227 232 239 229 218 210 208 209 208 209 209 211 213 211 209 208 207 206 207 209 211 211 213 216 219 219 218 219 221 223 226 228 230 234 236 234 235 236 237 237 238 238 236 238 234 216
355 249 248 248 171 154 251 186 161 199 296 188 154 140 261 267 264 295 315 348 29 135 241 158 183 279 297 310 301 245 234 268 289 260 247 230 225 233 226 213 213 217 224 226 220 207 204 202 201 203 205 208 210 209 208 206 205 205 207 209 210 211 214 216 219 222 223 222 223 225 230 234 236 240 242 239 240 240 240 239 239 241 238 238 236 220
241 245 210 148 165 182 229 198 149 176 289 241 191 180 228 248 214 225 282 3 3 354 92 94 27 317 325 340 315 304 285 275 309 319 278 251 238 238 238 226 209 205 212 214 215 210 201 200 201 203 205 207 207 208 208 206 206 206 207 209 211 212 214 217 219 221 223 222 222 222 226 231 231 236 240 236 237 239 240 240 239 240 241 240 237 224
259 261 191 177 198 157 198 224 182 179 233 300 223 204 213 213 198 202 71 62 32 343 297 47 32 295 318 342 297 315 323 274 301 316 274 268 264 244 247 246 219 201 207 208 212 206 199 202 202 204 205 205 208 210 209 208 208 207 209 210 211 212 213 216 219 220 220 220 220 220 219 218 214 217 225 230 235 239 240 241 240 241 242 242 237 227
264 293 53 91 85 88 80 270 222 163 117 328 247 205 196 164 131 135 143 110 81 266 297 32 138 250 319 333 285 305 315 288 297 287 267 271 271 250 250 258 239 204 202 210 213 204 200 201 198 202 204 205 210 211 208 208 209 208 209 210 211 213 214 217 218 219 219 218 219 221 221 220 216 214 221 228 235 241 244 244 243 243 244 242 237 230
245 314 13 48 64 61 9 299 233 144 113 254 240 166 159 149 150 169 158 136 178 217 324 10 113 130 314 282 278 301 305 297 294 272 269 269 263 254 251 260 255 216 198 203 211 209 207 201 200 205 206 208 210 208 205 206 207 208 209 212 212 213 215 218 218 218 218 217 219 221 221 223 224 224 226 230 233 238 243 243 242 242 242 242 237 232
232 287 302 78 51 2 279 244 197 141 136 248 207 136 149 161 162 160 136 128 132 109 318 317 89 109 276 274 305 342 304 291 281 259 261 262 262 261 255 259 260 234 204 203 210 213 212 207 208 211 210 211 210 206 205 204 204 206 209 209 207 208 215 222 223 221 220 220 221 222 220 221 226 228 230 233 235 235 237 239 239 238 237 238 235 231
234 216 195 157 161 242 242 238 181 152 197 245 142 112 37 57 77 94 108 113 59 56 255 261 154 135 268 284 322 4 284 266 264 258 258 258 263 263 256 262 268 256 219 217 224 221 220 219 218 215 212 212 211 208 207 204 203 205 204 201 203 211 218 222 223 223 223 221 220 221 219 218 223 227 229 232 234 234 233 233 233 232 232 232 232 230
276 245 176 168 201 208 218 245 179 175 204 22 90 72 13 26 31 38 61 85 73 318 258 249 177 128 290 282 251 211 228 227 227 259 266 265 272 268 253 261 274 274 245 232 240 240 234 229 222 214 209 208 207 208 206 204 204 203 200 199 206 217 221 219 220 222 224 221 219 220 219 219 223 228 229 229 230 232 231 229 227 228 229 229 230 230
325 356 198 250 231 182 152 85 356 289 14 51 76 58 16 345 9 26 0 42 93 258 271 273 194 117 137 265 248 246 254 235 206 226 246 256 268 271 272 289 302 295 260 235 239 242 233 218 206 201 200 199 199 201 203 203 203 200 199 203 210 218 221 219 219 221 222 220 219 220 221 223 226 230 232 229 229 232 232 229 226 223 224 226 228 228
328 277 280 314 271 160 124 103 342 353 32 77 99 66 48 339 2 19 331 14 181 236 263 296 338 127 220 246 250 271 274 261 239 235 252 265 272 285 318 336 332 317 251 237 241 228 210 202 199 192 190 191 193 197 200 202 201 200 201 205 211 217 221 220 219 220 221 220 220 221 223 226 228 230 234 233 233 235 234 230 224 220 219 221 223 225
331 309 334 353 344 157 131 140 208 335 46 120 152 116 108 81 49 320 285 300 277 270 275 285 273 197 274 263 251 273 279 269 259 251 256 267 278 292 309 321 320 304 252 243 248 229 209 202 204 197 190 189 193 198 201 202 202 201 203 206 211 217 221 220 219 221 221 221 222 223 225 228 230 231 234 235 237 237 234 230 226 224 223 223 226 228
67 322 328 348 329 353 129 173 163 145 120 147 157 131 134 150 142 232 248 223 256 279 289 296 310 165 228 258 264 275 283 282 272 263 276 298 305 305 306 323 330 311 299 300 278 269 132 182 201 195 189 191 196 200 202 203 203 203 205 210 213 217 219 219 220 221 221 222 223 224 226 229 232 234 236 239 242 241 236 232 229 229 229 229 233 235
97 259 269 273 276 341 346 244 145 108 75 258 158 107 124 191 143 143 190 176 193 207 296 305 266 208 219 266 292 303 314 330 351 6 9 349 333 346 344 337 331 311 317 319 290 339 79 171 187 180 183 192 199 202 203 204 205 206 209 213 216 219 219 220 221 222 222 223 224 225 226 229 233 236 238 240 243 241 237 235 234 234 235 236 237 239
77 265 283 320 323 356 34 257 112 89 141 262 116 150 251 182 118 112 188 25 63 124 246 322 290 299 322 292 308 352 10 357 2 4 356 330 330 348 333 314 315 310 315 303 289 15 102 162 164 168 182 193 199 204 207 208 209 210 212 214 218 221 221 220 223 225 225 225 226 227 229 231 235 237 239 240 241 239 236 236 238 240 240 240 239 240
118 271 293 343 331 316 32 82 1 22 125 91 68 227 238 94 92 108 121 10 35 137 273 344 314 303 352 237 315 359 2 326 333 341 331 316 320 324 300 295 301 299 299 291 294 2 110 150 154 168 185 197 205 210 213 214 215 215 215 217 221 223 222 223 226 227 226 227 229 231 233 237 239 241 240 238 237 238 235 234 237 239 241 242 240 240
104 327 293 294 261 292 344 59 21 347 47 84 125 194 120 90 327 4 86 104 77 147 283 325 322 269 199 220 286 301 246 262 293 315 312 292 283 282 283 295 305 305 309 301 312 357 35 96 148 175 186 199 209 214 218 218 218 220 220 223 225 225 227 231 232 230 229 230 233 236 239 242 242 243 242 235 234 235 234 233 236 239 241 240 237 234
88 81 288 281 273 310 358 44 30 330 351 36 50 27 39 129 161 169 114 155 142 148 223 306 344 276 227 217 210 225 239 237 251 274 271 262 263 262 264 287 305 305 311 318 334 345 354 56 119 193 198 205 212 216 219 219 220 225 226 228 231 230 231 236 238 236 235 237 239 241 243 244 244 244 243 237 234 234 235 238 240 241 239 237 234 231
52 78 283 294 325 16 20 37 119 203 353 22 34 19 352 354 78 116 46 59 116 137 178 191 305 266 252 207 184 212 227 213 210 227 240 251 261 263 260 270 286 296 313 331 342 329 329 36 91 183 206 211 217 218 220 221 223 228 230 232 235 235 234 239 243 244 244 244 243 244 245 247 248 247 245 240 236 235 237 237 237 237 238 238 237 236
103 97 108 308 351 32 251 264 186 195 129 93 87 34 308 343 62 84 1 331 97 125 162 161 196 266 264 205 213 232 234 234 223 215 234 257 264 268 264 241 255 293 313 318 328 320 314 358 86 140 179 196 209 216 221 224 226 230 235 237 239 239 240 243 247 249 250 250 248 249 250 251 251 251 247 241 237 235 233 227 227 236 238 237 237 238
150 104 82 292 295 245 255 279 269 224 130 92 80 54 112 94 86 111 182 294 20 76 144 139 160 263 272 309 279 273 279 290 278 230 240 263 268 272 280 286 340 334 318 311 323 317 309 338 57 118 160 181 200 214 219 224 228 233 240 243 243 244 245 248 250 252 254 254 253 254 253 252 251 250 246 241 238 234 225 216 228 238 239 238 238 239
91 81 51 308 303 312 301 317 334 30 72 62 15 18 53 4 114 150 163 178 143 158 161 100 269 265 295 337 329 313 322 321 312 285 271 283 293 299 318 5 18 359 340 334 339 336 332 350 30 67 136 187 200 222 225 225 231 237 243 247 250 251 253 255 255 256 256 255 255 254 252 250 248 246 243 240 239 234 219 214 230 238 240 242 241 239
82 89 66 49 360 349 348 347 347 359 30 55 342 344 337 333 31 124 105 56 20 229 146 127 250 256 287 340 5 6 8 11 360 349 331 306 312 327 353 21 21 4 354 349 350 354 349 350 6 14 359 326 267 255 249 243 246 251 254 258 262 265 267 267 264 261 258 256 255 253 251 249 245 243 243 241 241 235 216 212 232 238 237 241 242 240
101 120 113 108 104 12 305 286 278 314 346 356 343 339 332 343 11 36 55 52 339 254 147 150 229 261 312 351 7 5 7 12 5 7 15 360 343 353 17 32 23 8 0 350 347 352 351 346 352 3 4 352 330 308 295 289 281 277 281 288 289 286 282 279 274 269 264 260 257 255 253 251 247 245 245 243 244 239 217 211 234 239 235 238 242 241
97 78 105 133 148 178 190 216 229 178 72 2 326 333 335 329 343 85 93 31 241 195 214 224 205 253 344 350 360 360 5 13 11 15 19 15 12 17 30 38 35 27 15 3 360 357 355 356 352 357 6 6 1 351 340 335 334 328 329 336 335 324 307 292 282 275 268 262 260 258 257 256 252 249 249 246 247 244 225 219 239 244 238 238 241 241
93 41 36 129 157 199 189 206 234 119 115 151 293 322 331 333 357 95 120 283 217 137 273 268 202 87 354 344 355 356 359 9 16 19 19 20 23 28 37 40 38 34 28 25 24 16 10 8 359 355 0 6 17 23 19 12 6 3 3 5 359 345 325 302 283 273 268 261 258 259 257 256 255 253 252 250 249 248 235 226 238 248 244 239 240 244
108 122 205 149 218 245 226 253 237 115 113 111 27 336 347 20 44 91 156 281 178 167 243 284 81 78 10 349 357 358 357 0 7 13 19 27 27 27 35 37 34 30 29 31 31 28 26 22 14 7 6 10 24 42 51 47 39 45 15 247 239 230 228 241 252 257 259 254 252 254 254 253 253 251 251 251 248 248 241 230 233 242 244 241 241 246
115 207 228 153 250 286 301 310 42 123 119 68 30 10 24 58 62 77 77 341 79 138 184 85 81 77 45 8 3 357 345 334 357 22 28 29 25 25 32 33 29 27 28 30 31 35 37 31 25 22 22 25 33 58 88 103 199 228 240 246 242 235 221 204 211 234 246 248 248 251 252 251 251 250 249 247 245 245 242 235 231 235 242 243 243 244
52 313 279 96 27 306 323 26 76 129 130 92 42 18 32 66 52 45 23 358 51 75 4 48 75 71 38 19 10 355 355 17 32 33 32 27 22 26 32 30 26 26 27 28 30 34 35 34 30 24 24 29 41 106 153 196 223 233 244 245 244 247 241 221 212 226 242 250 254 255 253 252 251 250 249 247 245 243 239 235 231 231 237 241 243 244
40 329 344 68 66 279 289 55 64 114 91 68 39 16 21 47 52 39 13 4 81 97 358 25 64 46 334 350 354 4 35 46 41 31 25 22 20 24 28 24 22 24 25 27 28 28 26 22 15 7 5 8 29 168 203 224 228 235 246 245 241 245 242 231 228 232 243 255 262 262 260 258 255 252 250 249 248 243 236 234 233 232 235 239 242 245
123 131 171 117 136 261 283 355 35 49 48 24 327 324 53 81 98 95 33 8 18 114 84 75 161 273 314 345 1 11 28 43 46 35 23 16 14 20 22 17 13 16 20 24 24 23 17 360 348 340 329 323 312 257 245 236 235 253 262 254 249 243 230 227 230 232 240 252 260 265 266 265 260 256 257 256 254 249 240 236 236 235 237 240 243 245
125 120 161 166 143 253 282 341 36 49 24 260 254 197 143 139 120 103 65 355 352 34 93 127 197 336 10 21 17 5 356 9 34 35 28 19 10 14 21 17 12 12 15 16 14 11 357 340 337 334 325 314 301 297 298 280 275 291 286 269 267 252 227 233 234 230 231 239 250 259 263 263 261 261 265 265 260 256 250 246 244 241 241 243 243 243
138 126 148 144 127 218 300 27 50 260 239 241 255 109 124 125 113 105 91 20 357 13 54 62 27 36 46 24 355 329 305 315 20 36 33 26 9 4 11 12 13 17 17 12 2 355 348 338 334 334 334 331 322 321 330 339 335 327 312 286 276 263 245 249 247 240 234 232 240 248 250 252 255 260 265 267 265 262 258 255 253 250 248 246 244 243
150 145 142 123 137 178 35 61 102 242 257 273 300 232 134 106 100 94 51 13 353 343 25 42 20 56 70 355 287 244 242 256 119 72 50 30 4 352 351 346 353 7 14 11 345 332 337 334 329 328 333 337 338 337 340 343 345 343 338 329 315 297 283 272 262 256 250 243 246 252 251 250 252 256 260 261 261 262 261 259 258 255 253 251 248 246
143 142 139 123 160 151 113 82 331 307 289 265 264 171 153 224 250 183 121 2 332 329 312 337 14 62 101 244 277 274 275 330 8 22 44 342 294 282 288 293 318 338 345 0 355 324 328 332 329 327 329 334 340 345 345 343 344 344 344 348 345 332 321 307 286 278 276 275 273 269 263 259 256 256 259 258 257 258 260 260 260 260 257 255 254 253
96 131 158 155 153 116 98 78 38 21 246 240 252 267 239 262 252 175 126 91 310 326 316 208 339 348 108 176 262 279 329 40 7 310 294 292 279 270 281 306 343 333 326 339 345 333 330 334 331 329 327 327 333 341 344 343 343 343 346 351 350 343 336 327 317 317 321 318 308 295 281 271 267 264 263 261 261 262 264 263 262 263 263 260 259 259
49 55 111 110 95 107 108 115 164 197 220 238 259 286 310 298 242 133 89 313 282 301 298 195 189 289 286 193 216 207 71 52 316 276 281 289 294 308 324 331 337 333 327 332 337 331 331 335 336 333 328 325 330 337 338 338 340 342 345 349 349 348 347 342 337 342 348 350 347 332 304 278 269 266 263 262 265 267 267 268 269 270 270 269 267 267
31 20 47 82 96 111 113 125 205 217 222 246 270 292 307 319 95 95 33 269 261 289 287 222 273 321 324 347 18 81 74 30 285 279 293 301 307 314 315 309 311 316 321 329 334 332 330 332 334 333 329 327 332 338 338 336 336 336 338 341 343 347 354 354 353 357 4 10 16 5 326 277 256 250 250 253 260 267 270 270 271 273 273 274 274 272
10 7 49 115 108 82 106 122 257 246 236 277 297 301 304 325 77 103 229 233 244 299 290 237 352 330 331 7 23 52 28 271 270 289 309 298 291 299 301 298 297 304 314 323 327 326 323 322 322 324 326 328 334 340 341 337 335 334 335 336 336 343 356 5 9 17 23 22 7 340 313 280 253 240 239 243 249 258 265 267 268 269 270 271 271 269
354 355 19 76 63 50 108 108 315 269 262 293 302 307 323 7 163 216 233 224 232 281 293 30 27 331 333 10 8 259 274 282 285 301 310 273 242 266 290 299 301 306 314 321 325 325 319 313 311 314 321 325 330 337 339 336 334 335 335 334 335 342 356 9 19 21 18 8 340 306 285 271 257 246 240 241 244 249 254 259 263 264 265 264 263 262
143 80 349 29 149 97 74 68 67 230 270 309 321 336 16 82 192 213 236 289 238 237 237 47 299 237 244 325 291 267 284 303 309 316 323 314 293 289 298 301 301 304 311 319 323 323 316 306 304 305 310 317 324 330 333 331 329 331 333 335 338 343 350 356 358 350 334 317 298 278 268 263 259 253 247 241 242 246 250 254 258 259 260 260 258 257
149 147 221 240 193 120 101 153 206 209 250 306 23 114 162 213 191 179 158 176 268 258 215 343 311 278 248 281 303 298 298 308 311 316 320 319 316 314 311 310 309 309 313 317 319 320 314 303 301 304 306 310 316 323 326 325 324 323 325 333 339 342 341 340 337 322 304 291 274 260 261 259 254 252 250 242 241 245 248 250 253 254 256 257 256 254
232 184 165 172 184 159 175 208 222 221 258 313 51 133 182 282 120 161 162 168 241 248 213 287 317 306 291 292 304 306 307 309 310 309 307 306 307 308 311 312 314 315 317 319 322 324 318 305 301 303 305 307 311 313 315 318 319 317 318 327 337 339 335 332 322 304 297 294 281 270 275 282 268 256 251 243 242 246 248 249 251 252 253 253 252 252
290 142 117 117 166 174 160 195 232 289 308 324 347 122 194 357 27 147 149 163 253 252 239 249 283 298 305 304 303 306 304 305 308 306 303 302 302 306 313 317 320 323 325 324 326 328 323 314 305 299 300 306 308 306 307 309 311 312 316 324 336 339 331 320 303 293 293 297 294 289 292 302 301 288 274 260 251 250 250 250 250 250 249 249 248 249
300 82 84 78 85 87 71 253 240 269 299 311 324 324 324 334 308 192 175 219 255 262 263 263 272 289 298 300 302 301 299 303 309 308 307 309 307 308 312 315 317 321 323 321 321 323 322 316 305 298 298 302 306 306 304 304 307 310 315 324 336 341 329 306 283 281 287 295 300 302 299 296 300 309 312 300 282 268 261 258 255 253 251 248 246 245
291 97 88 74 84 121 239 257 264 282 285 283 281 282 297 314 309 296 276 270 276 280 279 280 286 294 301 309 311 304 300 303 306 306 308 310 308 307 308 308 310 315 316 317 318 318 316 310 304 300 298 299 305 308 305 302 306 312 316 323 335 339 326 302 280 275 281 291 297 302 303 298 295 300 309 311 307 295 284 277 271 266 261 256 252 250
3 60 112 97 61 11 257 262 311 335 312 298 282 266 264 268 285 306 322 327 327 328 328 327 325 321 313 310 308 306 305 302 299 300 304 303 301 304 306 307 308 309 309 311 314 313 309 305 302 300 300 302 307 310 307 302 305 312 314 317 327 330 317 301 290 282 282 288 292 293 298 301 301 301 304 307 308 304 297 291 285 279 276 273 267 262
48 67 119 98 71 324 250 219 170 145 277 273 267 266 267 264 292 317 324 329 329 328 329 326 323 323 322 317 313 308 301 298 298 299 296 293 294 297 301 305 308 308 308 309 310 309 306 304 302 299 299 304 308 310 308 304 304 308 309 309 314 318 309 295 288 286 286 287 288 290 293 297 300 303 306 308 310 309 305 302 297 289 285 286 284 276
121 156 167 140 153 226 237 217 176 147 217 258 259 266 280 306 5 312 302 301 301 305 306 303 307 314 319 320 319 315 298 291 299 303 299 298 299 299 301 304 305 305 307 308 308 306 305 304 304 301 298 302 306 306 305 303 302 304 305 302 302 308 306 294 280 279 285 287 287 288 291 294 297 300 304 307 310 311 309 308 307 302 296 294 293 287